Flag for Switzerland Weather past 2 weeks in Mendrisio, Ticino, Switzerland

Now
83 °F

Warm.


Feels Like: 87 °F
Forecast: 65 / 81 °F
Wind: 2 mph from South

Location: Stabio

Current Time: Jul 5, 2015 at 11:54:25 AM

Latest Report: Jul 5, 2015 at 11:00 AM


Visibility: N/A

Pressure: 30.09 "Hg

Humidity: 61%

Dew point: 69 °F

Location of MendrisioLocation

Historic Weather in Mendrisio — Graph

°F

Mendrisio temperature yesterday

Maximum temperature yesterday: 89 °F (at 5:00 PM)
Minimum temperature yesterday: 65 °F (at 6:00 AM)
Average temperature yesterday: 77 °F

Past Weeks' High & Low Weather Summary

 TemperatureHumidityPressure
High89 °F (Jul 3, 2:00 PM)100% (Jun 28, 6:00 AM)30.34 "Hg (Jun 28, 6:00 AM)
Low53 °F (Jun 25, 6:00 AM)22% (Jun 20, 9:00 PM)29.70 "Hg (Jun 23, 2:00 PM)
Average71 °F67%30.07 "Hg
* Reported Jun 20 10:00 AM — Jul 5 10:00 AM, Mendrisio, Weather by CustomWeather, © 2015

Note: Actual official high and low records may vary slightly from our data, if they occured in-between our weather recording intervals... More about our weather records

Advertising

Mendrisio weather history for previous 24 hours

 ConditionsComfort  
Time TempWeatherWind HumidityBarometerVisibility
10:00 AM
Sun, Jul 5
81 °FWarm.2 mph68%30.10 "HgN/A
9:00 AM78 °FWarm.3 mph73%30.11 "HgN/A
8:00 AM74 °FMild.No wind85%30.11 "HgN/A
7:00 AM70 °FMild.1 mph92%30.12 "HgN/A
6:00 AM68 °FMild.No wind94%30.12 "HgN/A
4:00 AM69 °FMild.No wind94%30.13 "HgN/A
3:00 AM69 °FMild.No wind91%30.13 "HgN/A
2:00 AM70 °FMild.No wind92%30.14 "HgN/A
1:00 AM70 °FMild.No wind92%30.14 "HgN/A
12:00 AM72 °FMild.No wind89%30.13 "HgN/A
11:00 PM
Sat, Jul 4
72 °FMild.No wind89%30.14 "HgN/A
10:00 PM74 °FMild.2 mph80%30.14 "HgN/A
9:00 PM77 °FWarm.1 mph72%30.11 "HgN/A
8:00 PM82 °FWarm.1 mph67%30.09 "HgN/A
7:00 PM87 °FWarm.2 mph49%30.07 "HgN/A
6:00 PM88 °FHot.2 mph49%30.09 "HgN/A
5:00 PM89 °FHot.2 mph50%30.10 "HgN/A
4:00 PM87 °FWarm.2 mph45%30.11 "HgN/A
3:00 PM87 °FWarm.2 mph46%30.14 "HgN/A
2:00 PM86 °FWarm.2 mph47%30.16 "HgN/A
1:00 PM85 °FWarm.3 mph49%30.18 "HgN/A
12:00 PM82 °FWarm.1 mph51%30.19 "HgN/A
11:00 AM82 °FWarm.2 mph55%30.20 "HgN/A
Weather by CustomWeather, © 2015

See weather overviewHow to use our weather pages